パンスターズ彗星

253P/PanSTARRS (2011)

English version
Home page
Updated on February 10, 2013

---------------------------------------------------------------------

・ プロフィール

符号 253P/2011 R2
発見日 2011年9月4日
発見光度 18.7等
発見者 Pan-STARRS 1 telescope (Haleakala)

・ 写真集

・ 軌道要素

Epoch 2011 Nov. 15.0 TT = JDT 2455880.5
T 2011 Nov. 24.11259 TT                                 MPC
q   2.0394629            (2000.0)            P               Q
n   0.15229261     Peri.  230.99847     +0.94983656     -0.30919931
a   3.4728297      Node   146.93572     +0.30691031     +0.89265826
e   0.4127374      Incl.    4.93895     +0.06013798     +0.32795887
P   6.47
From 319 observations 1998 Sept. 14-2012 Feb. 23, mean residual 0".5.

・ 光度変化

        m1 = 12.0 + 5 logΔ + 15.0 log r

---------------------------------------------------------------------

軌道要素はM.P.E.C. 2012-W54に掲載されたものです。
光度グラフはComet for Windowsで作成したものです。

---------------------------------------------------------------------

Copyright(C) Seiichi Yoshida (comet@aerith.net). All rights reserved.